SES-14

Last updated on Sat Dec 13 2025 00:02:50 GMT+0000 (Coordinated Universal Time)

1 43175U 18012B 25346.19559194 -.00000269 00000+0 00000+0 0 9991 2 43175 0.0168 17.8447 0000975 245.6784 200.5374 1.00270211 5151
UTC large
Height (km)
Speed (km/s)
/
Latitude / Longitude
Inclination (degrees)
Orbital Period (minutes)
Azimuth
Elevation
Range (km)
Doppler Factor

Next 0 passes for location: London (51.5072 / 0.1276)

Sorry there are no passes over London.